Weather History for K3A1 - February, 2012

Change the Weather History Date:

Tuesday, February 7, 2012

  Actual Average (KHSV) Record (KHSV)
Temperature  
Mean Temperature 46 °F 44 °F  
Max Temperature 59 °F 54 °F 73 °F (1999)
Min Temperature 32 °F 34 °F 12 °F (1988)
Degree Days  
Heating Degree Days 20 21  
Month to date heating degree days 152  
Since 1 July heating degree days 2062  
Cooling Degree Days 0 0  
Month to date cooling degree days 0  
Year to date cooling degree days 0  
Moisture  
Dew Point 25 °F    
Average Humidity 57    
Maximum Humidity 94    
Minimum Humidity 12    
Precipitation  
Precipitation 0.00 in 0.16 in 1.95 in (1903)
Month to date precipitation 1.18  
Year to date precipitation 6.07  
Snow  
Snow 0.00 in - - ()
Month to date snowfall  
Since 1 July snowfall  
Snow Depth -    
Sea Level Pressure  
Sea Level Pressure 30.20 in    
Wind  
Wind Speed 1 mph (North)    
Max Wind Speed 8 mph    
Max Gust Speed -    
Visibility 7 miles    
Events Fog    
T = Trace of Precipitation, MM = Missing Value Source: NWS Daily Summary

Daily Weather History Graph

Daily Weather History Graph

Search for Another Location

Airport or City:

Trip Planner

Search our weather history database for the weather conditions in past years. The results will help you decide how hot, cold, wet, or windy it might be!

Date:

Astronomy

Feb. 07, 2012 Rise Set
Actual Time 6:40 AM CST 5:23 PM CST
Civil Twilight 6:14 AM CST 5:49 PM CST
Nautical Twilight 5:44 AM CST 6:18 PM CST
Astronomical Twilight 5:15 AM CST 6:48 PM CST
Moon 5:30 PM CST (2/7) 6:10 AM CST (2/7)
Length of Visible Light 11h 34m
Length of Day
10h 42m
Full, 100% of the Moon is Illuminated
Feb 7
Full
Feb 7
Full
Feb 14
Last Quarter
Feb 21
New
Feb 29
First Quarter

Hourly Weather History & Observations

Time (CST) Temp. Windchill Dew Point Humidity Pressure Visibility Wind Dir Wind Speed Gust Speed Precip Events Conditions
12:15 AM 35.6 °F - 33.1 °F 91% 30.21 in 5.0 mi Calm Calm - N/A   Clear
12:35 AM 35.6 °F - 33.1 °F 91% 30.21 in 4.0 mi Calm Calm - N/A   Clear
12:55 AM 35.6 °F - 33.1 °F 91% 30.21 in 3.0 mi Calm Calm - N/A   Clear
1:15 AM 35.6 °F - 33.3 °F 91% 30.21 in 7.0 mi Calm Calm - N/A   Clear
1:35 AM 35.6 °F - 33.3 °F 91% 30.20 in 5.0 mi Calm Calm - N/A   Clear
1:55 AM 35.6 °F - 33.1 °F 91% 30.20 in 4.0 mi Calm Calm - N/A   Clear
2:15 AM 35.6 °F - 33.1 °F 91% 30.20 in 5.0 mi Calm Calm - N/A   Clear
2:35 AM 35.2 °F - 32.9 °F 91% 30.19 in 3.0 mi Calm Calm - N/A   Clear
2:55 AM 33.1 °F - 31.3 °F 93% 30.19 in 3.0 mi Calm Calm - N/A   Clear
3:15 AM 33.6 °F - 31.6 °F 92% 30.19 in 5.0 mi Calm Calm - N/A   Clear
3:35 AM 34.2 °F - 32.2 °F 92% 30.19 in 5.0 mi Calm Calm - N/A   Clear
3:55 AM 35.2 °F - 33.1 °F 92% 30.19 in 4.0 mi Calm Calm - N/A   Clear
4:15 AM 33.8 °F - 32.0 °F 93% 30.19 in 5.0 mi Calm Calm - N/A   Clear
4:35 AM 32.9 °F - 31.5 °F 94% 30.19 in 5.0 mi Calm Calm - N/A   Clear
4:55 AM 34.2 °F - 32.2 °F 92% 30.20 in 3.0 mi Calm Calm - N/A   Clear
5:15 AM 35.6 °F - 33.3 °F 91% 30.21 in 3.0 mi Calm Calm - N/A   Clear
5:35 AM 34.7 °F - 32.5 °F 92% 30.21 in 4.0 mi Calm Calm - N/A   Clear
5:55 AM 33.1 °F - 31.3 °F 93% 30.22 in 3.0 mi Calm Calm - N/A   Mist
6:15 AM 32.9 °F - 31.1 °F 93% 30.21 in 3.0 mi Calm Calm - N/A   Mist
6:35 AM 32.9 °F - 31.1 °F 93% 30.22 in 0.8 mi Calm Calm - N/A   Mist
6:55 AM 32.9 °F - 31.1 °F 93% 30.22 in 0.2 mi Calm Calm - N/A Fog Fog
7:15 AM 32.9 °F - 31.1 °F 93% 30.24 in 1.5 mi Calm Calm - N/A   Mostly Cloudy
7:35 AM 34.2 °F - 32.2 °F 92% 30.24 in 0.8 mi Calm Calm - N/A   Mostly Cloudy
7:55 AM 35.8 °F - 33.4 °F 91% 30.24 in 4.0 mi Calm Calm - N/A   Clear
8:15 AM 38.1 °F - 36.0 °F 92% 30.24 in 4.0 mi Calm Calm - N/A   Clear
8:35 AM 41.0 °F - 38.5 °F 91% 30.24 in 10.0 mi Calm Calm - N/A   Clear
8:55 AM 45.7 °F 42.0 °F 41.9 °F 87% 30.24 in 10.0 mi NNE 6.9 mph - N/A   Clear
9:15 AM 48.2 °F - 39.7 °F 73% 30.25 in 10.0 mi Calm Calm - N/A   Clear
9:35 AM 48.2 °F - 35.8 °F 62% 30.25 in 10.0 mi NNE 4.6 mph - N/A   Clear
9:55 AM 49.8 °F - 30.6 °F 48% 30.25 in 10.0 mi NE 6.9 mph - N/A   Clear
10:15 AM 52.0 °F - 27.1 °F 38% 30.25 in 10.0 mi Calm Calm - N/A   Clear
10:35 AM 53.1 °F - 25.2 °F 34% 30.24 in 10.0 mi NNW 6.9 mph - N/A   Clear
10:55 AM 53.1 °F - 19.0 °F 26% 30.24 in 10.0 mi Calm Calm - N/A   Clear
11:15 AM 53.1 °F - 18.7 °F 26% 30.23 in 10.0 mi Calm Calm - N/A   Clear
11:35 AM 53.8 °F - 19.0 °F 26% 30.23 in 10.0 mi Calm Calm - N/A   Clear
11:55 AM 55.2 °F - 18.7 °F 24% 30.22 in 10.0 mi Calm Calm - N/A   Clear
12:15 PM 55.4 °F - 17.6 °F 23% 30.21 in 10.0 mi Calm Calm - N/A   Clear
12:35 PM 55.8 °F - 14.4 °F 20% 30.19 in 10.0 mi North 5.8 mph - N/A   Clear
12:55 PM 57.0 °F - 15.6 °F 20% 30.19 in 10.0 mi North 8.1 mph - N/A   Clear
1:15 PM 57.7 °F - 14.0 °F 18% 30.18 in 10.0 mi Calm Calm - N/A   Clear
1:35 PM 58.1 °F - 11.5 °F 16% 30.18 in 10.0 mi Calm Calm - N/A   Clear
1:55 PM 58.5 °F - 9.1 °F 14% 30.18 in 10.0 mi Calm Calm - N/A   Clear
2:15 PM 59.4 °F - 9.5 °F 14% 30.17 in 10.0 mi Calm Calm - N/A   Clear
2:35 PM 59.4 °F - 8.4 °F 13% 30.17 in 10.0 mi Calm Calm - N/A   Clear
2:55 PM 59.0 °F - 7.9 °F 13% 30.17 in 10.0 mi North 5.8 mph - N/A   Clear
3:15 PM 58.6 °F - 6.4 °F 12% 30.17 in 10.0 mi Calm Calm - N/A   Clear
3:35 PM 58.8 °F - 6.3 °F 12% 30.17 in 10.0 mi Calm Calm - N/A   Clear
3:55 PM 58.1 °F - 8.6 °F 14% 30.17 in 10.0 mi Calm Calm - N/A   Clear
4:15 PM 58.1 °F - 11.3 °F 16% 30.17 in 10.0 mi Calm Calm - N/A   Clear
4:35 PM 58.1 °F - 12.9 °F 17% 30.17 in 10.0 mi Calm Calm - N/A   Clear
4:55 PM 56.1 °F - 12.6 °F 18% 30.18 in 10.0 mi NNW 4.6 mph - N/A   Clear
5:15 PM 54.3 °F - 12.9 °F 19% 30.19 in 10.0 mi Calm Calm - N/A   Clear
5:35 PM 53.1 °F - 16.0 °F 23% 30.19 in 10.0 mi Calm Calm - N/A   Clear
5:55 PM 52.5 °F - 19.4 °F 27% 30.19 in 10.0 mi Calm Calm - N/A   Clear
6:15 PM 49.6 °F - 20.5 °F 32% 30.19 in 10.0 mi Calm Calm - N/A   Clear
6:35 PM 49.1 °F - 20.3 °F 32% 30.19 in 10.0 mi Calm Calm - N/A   Clear
6:55 PM 48.4 °F - 21.2 °F 34% 30.20 in 10.0 mi Calm Calm - N/A   Clear
7:15 PM 48.2 °F - 25.9 °F 42% 30.19 in 10.0 mi Calm Calm - N/A   Scattered Clouds
7:35 PM 48.2 °F - 24.4 °F 39% 30.19 in 10.0 mi Calm Calm - N/A   Scattered Clouds
7:55 PM 48.6 °F - 24.6 °F 39% 30.18 in 10.0 mi Calm Calm - N/A   Scattered Clouds
8:15 PM 49.3 °F - 24.3 °F 38% 30.16 in 10.0 mi Calm Calm - N/A   Scattered Clouds
8:35 PM 48.4 °F - 23.5 °F 38% 30.17 in 10.0 mi Calm Calm - N/A   Scattered Clouds
8:55 PM 48.2 °F - 23.4 °F 38% 30.19 in 10.0 mi Calm Calm - N/A   Mostly Cloudy
9:15 PM 49.3 °F - 21.2 °F 33% 30.20 in 10.0 mi Calm Calm - N/A   Mostly Cloudy
9:35 PM 48.6 °F - 26.1 °F 42% 30.21 in 10.0 mi Calm Calm - N/A   Mostly Cloudy
9:55 PM 48.4 °F - 27.7 °F 45% 30.20 in 10.0 mi Calm Calm - N/A   Light Drizzle
10:15 PM 48.2 °F - 31.1 °F 52% 30.20 in 10.0 mi Calm Calm - N/A   Mostly Cloudy
10:35 PM 48.2 °F - 31.3 °F 52% 30.21 in 10.0 mi Calm Calm - N/A   Light Drizzle
10:55 PM 48.2 °F - 31.6 °F 53% 30.21 in 10.0 mi Calm Calm - N/A   Mostly Cloudy
11:15 PM 48.2 °F - 30.0 °F 49% 30.22 in 10.0 mi Calm Calm - N/A   Mostly Cloudy
11:35 PM 48.2 °F - 24.8 °F 40% 30.22 in 10.0 mi Calm Calm - N/A   Mostly Cloudy
11:55 PM 48.2 °F - 25.2 °F 41% 30.23 in 10.0 mi Calm Calm - N/A   Overcast